Location: Sternwarte-Kraichtal
(49.1689°N, 8.6996°E)
Time: 07:31:14
(UTC+02:00)

Vanguard 3 - All Passes

Search period start: 27 May 2022 00:00
Search period end: 06 June 2022 00:00
Orbit: 508 x 3258 km, 33.3° (Epoch: 26 May)

Date Brightness Start Highest point End Pass type
(mag) Time Alt. Az. Time Alt. Az. Time Alt. Az.
27 May - 04:17:38 10° SSW 04:19:10 11° S 04:20:51 10° SSE visible
04 Jun - 23:43:33 10° SSW 23:44:54 11° S 23:46:09 10° SSE visible
05 Jun - 22:28:10 10° SSW 22:30:52 13° S 22:33:08 10° SSE visible
